Time,TemperatureF,DewpointF,PressureIn,WindDirection,WindDirectionDegrees,WindSpeedMPH,WindSpeedGustMPH,Humidity,HourlyPrecipIn,Conditions,Clouds,dailyrainin,SoftwareType,DateUTC
2013-01-06 10:40:00,18.0,8.2,29.43,North,360,0.0,0.0,65,0.00,,,0.00,Wunderground v.1.13,2013-01-06 19:40:00,
2013-01-06 10:45:00,18.4,8.2,29.43,North,360,0.0,0.0,64,0.00,,,0.00,Wunderground v.1.13,2013-01-06 19:45:00,
2013-01-06 10:50:00,17.8,8.4,29.43,North,360,0.0,0.0,66,0.00,,,0.00,Wunderground v.1.13,2013-01-06 19:50:00,
2013-01-06 10:55:00,16.9,8.2,29.43,North,360,0.0,0.0,68,0.00,,,0.00,Wunderground v.1.13,2013-01-06 19:55:00,
2013-01-06 11:00:00,15.2,7.8,29.43,North,360,0.0,0.0,72,0.00,,,0.00,Wunderground v.1.13,2013-01-06 20:00:00,
2013-01-06 11:07:00,14.3,7.5,29.43,North,360,0.0,0.0,74,0.00,,,0.00,Wunderground v.1.13,2013-01-06 20:07:00,
2013-01-06 11:11:00,14.6,7.5,29.43,North,360,0.0,0.0,73,0.00,,,0.00,Wunderground v.1.13,2013-01-06 20:11:00,
2013-01-06 11:13:00,14.8,7.7,29.43,North,360,0.0,1.0,73,0.00,,,0.00,Wunderground v.1.13,2013-01-06 20:13:00,
2013-01-06 11:18:00,15.4,7.7,29.43,North,360,0.0,0.0,71,0.00,,,0.00,Wunderground v.1.13,2013-01-06 20:18:00,
2013-01-06 11:23:00,16.1,7.7,29.43,WNW,290,0.0,1.0,69,0.00,,,0.00,Wunderground v.1.13,2013-01-06 20:23:00,
2013-01-06 11:28:00,16.2,8.1,29.43,WNW,290,0.0,1.0,70,0.00,,,0.00,Wunderground v.1.13,2013-01-06 20:28:00,
2013-01-06 11:33:00,15.9,8.2,29.43,NNW,337,0.0,1.0,71,0.00,,,0.00,Wunderground v.1.13,2013-01-06 20:33:00,
2013-01-06 11:38:00,15.7,8.3,29.43,North,360,0.0,2.0,72,0.00,,,0.00,Wunderground v.1.13,2013-01-06 20:38:00,
2013-01-06 11:43:00,16.4,8.0,29.43,North,9,0.0,2.0,69,0.00,,,0.00,Wunderground v.1.13,2013-01-06 20:43:00,
2013-01-06 11:48:00,16.2,8.4,29.42,North,360,2.0,3.0,71,0.00,,,0.00,Wunderground v.1.13,2013-01-06 20:48:00,
2013-01-06 11:53:00,15.6,7.9,29.42,NW,322,1.0,1.0,71,0.00,,,0.00,Wunderground v.1.13,2013-01-06 20:53:00,
2013-01-06 11:58:00,14.3,7.8,29.42,NNW,344,0.0,2.0,75,0.00,,,0.00,Wunderground v.1.13,2013-01-06 20:58:00,
2013-01-06 12:01:00,14.1,7.6,29.42,North,360,2.0,3.0,75,0.00,,,0.00,Wunderground v.1.13,2013-01-06 21:01:00,
2013-01-06 12:07:00,14.3,7.5,29.42,North,355,0.0,1.0,74,0.00,,,0.00,Wunderground v.1.13,2013-01-06 21:07:00,
2013-01-06 12:12:00,14.4,7.6,29.42,North,355,0.0,2.0,74,0.00,,,0.00,Wunderground v.1.13,2013-01-06 21:12:00,
2013-01-06 12:17:00,14.3,7.5,29.42,North,355,1.0,2.0,74,0.00,,,0.00,Wunderground v.1.13,2013-01-06 21:17:00,
2013-01-06 12:22:00,13.6,7.1,29.41,North,355,0.0,1.0,75,0.00,,,0.00,Wunderground v.1.13,2013-01-06 21:22:00,
2013-01-06 12:27:00,13.3,7.1,29.41,North,9,0.0,2.0,76,0.00,,,0.00,Wunderground v.1.13,2013-01-06 21:27:00,
2013-01-06 12:32:00,13.1,7.2,29.41,North,9,1.0,1.0,77,0.00,,,0.00,Wunderground v.1.13,2013-01-06 21:32:00,
2013-01-06 12:37:00,12.9,7.0,29.41,North,9,0.0,1.0,77,0.00,,,0.00,Wunderground v.1.13,2013-01-06 21:37:00,
2013-01-06 12:42:00,12.8,7.2,29.41,North,5,0.0,2.0,78,0.00,,,0.00,Wunderground v.1.13,2013-01-06 21:42:00,
2013-01-06 12:47:00,12.8,7.2,29.41,North,360,0.0,1.0,78,0.00,,,0.00,Wunderground v.1.13,2013-01-06 21:47:00,
2013-01-06 12:52:00,12.8,7.2,29.41,North,360,0.0,1.0,78,0.00,,,0.00,Wunderground v.1.13,2013-01-06 21:52:00,
2013-01-06 12:57:00,12.6,7.0,29.41,NNW,348,0.0,1.0,78,0.00,,,0.00,Wunderground v.1.13,2013-01-06 21:57:00,
2013-01-06 13:02:00,12.6,7.3,29.41,North,360,0.0,1.0,79,0.00,,,0.00,Wunderground v.1.13,2013-01-06 22:02:00,
2013-01-06 13:07:00,12.8,7.2,29.41,North,360,0.0,0.0,78,0.00,,,0.00,Wunderground v.1.13,2013-01-06 22:07:00,
2013-01-06 13:12:00,12.6,7.3,29.41,North,360,0.0,0.0,79,0.00,,,0.00,Wunderground v.1.13,2013-01-06 22:12:00,
2013-01-06 13:17:00,13.8,7.9,29.41,NNE,32,0.0,0.0,77,0.00,,,0.00,Wunderground v.1.13,2013-01-06 22:17:00,
2013-01-06 13:22:00,15.1,8.6,29.41,NNE,32,0.0,0.0,75,0.00,,,0.00,Wunderground v.1.13,2013-01-06 22:22:00,
2013-01-06 13:27:00,15.7,8.6,29.41,NNE,32,0.0,0.0,73,0.00,,,0.00,Wunderground v.1.13,2013-01-06 22:27:00,
2013-01-06 13:32:00,16.4,8.6,29.40,NNE,32,0.0,0.0,71,0.00,,,0.00,Wunderground v.1.13,2013-01-06 22:32:00,
2013-01-06 13:37:00,16.7,8.6,29.40,NNE,32,0.0,0.0,70,0.00,,,0.00,Wunderground v.1.13,2013-01-06 22:37:00,
2013-01-06 13:42:00,16.5,8.4,29.40,NNE,32,0.0,1.0,70,0.00,,,0.00,Wunderground v.1.13,2013-01-06 22:42:00,
2013-01-06 13:48:00,15.4,8.0,29.40,NNE,32,1.0,1.0,72,0.00,,,0.00,Wunderground v.1.13,2013-01-06 22:48:00,
2013-01-06 13:53:00,14.8,8.0,29.40,NNE,22,0.0,2.0,74,0.00,,,0.00,Wunderground v.1.13,2013-01-06 22:53:00,
2013-01-06 13:58:00,14.4,7.6,29.40,North,360,0.0,2.0,74,0.00,,,0.00,Wunderground v.1.13,2013-01-06 22:58:00,
2013-01-06 14:03:00,14.3,7.8,29.40,North,360,1.0,1.0,75,0.00,,,0.00,Wunderground v.1.13,2013-01-06 23:03:00,
2013-01-06 14:08:00,14.4,7.9,29.40,NNE,20,1.0,1.0,75,0.00,,,0.00,Wunderground v.1.13,2013-01-06 23:08:00,
2013-01-06 14:13:00,14.8,8.0,29.40,NNW,331,1.0,3.0,74,0.00,,,0.00,Wunderground v.1.13,2013-01-06 23:13:00,
2013-01-06 14:18:00,14.0,6.9,29.40,NNW,328,0.0,1.0,73,0.00,,,0.00,Wunderground v.1.13,2013-01-06 23:18:00,
2013-01-06 14:23:00,12.8,6.7,29.40,NNW,346,1.0,1.0,76,0.00,,,0.00,Wunderground v.1.13,2013-01-06 23:23:00,
2013-01-06 14:28:00,11.9,6.1,29.40,NNW,346,1.0,2.0,77,0.00,,,0.00,Wunderground v.1.13,2013-01-06 23:28:00,
2013-01-06 14:33:00,12.1,6.8,29.40,NNW,341,1.0,2.0,79,0.00,,,0.00,Wunderground v.1.13,2013-01-06 23:33:00,
2013-01-06 14:38:00,12.9,7.6,29.40,NNW,336,2.0,3.0,79,0.00,,,0.00,Wunderground v.1.13,2013-01-06 23:38:00,
2013-01-06 14:43:00,13.5,7.6,29.40,NNW,343,0.0,2.0,77,0.00,,,0.00,Wunderground v.1.13,2013-01-06 23:43:00,
2013-01-06 14:48:00,13.5,7.6,29.40,NNW,342,0.0,2.0,77,0.00,,,0.00,Wunderground v.1.13,2013-01-06 23:48:00,
2013-01-06 14:53:00,13.3,7.4,29.40,NNW,342,1.0,2.0,77,0.00,,,0.00,Wunderground v.1.13,2013-01-06 23:53:00,
2013-01-06 14:58:00,12.9,7.0,29.40,NNW,342,0.0,2.0,77,0.00,,,0.00,Wunderground v.1.13,2013-01-06 23:58:00,
2013-01-06 15:03:00,12.8,7.2,29.39,WNW,284,0.0,1.0,78,0.00,,,0.00,Wunderground v.1.13,2013-01-07 00:03:00,
2013-01-06 15:08:00,12.6,7.3,29.39,NNW,331,0.0,1.0,79,0.00,,,0.00,Wunderground v.1.13,2013-01-07 00:08:00,
2013-01-06 15:13:00,12.9,7.6,29.39,North,11,0.0,2.0,79,0.00,,,0.00,Wunderground v.1.13,2013-01-07 00:13:00,
2013-01-06 15:18:00,13.8,8.2,29.39,NNE,19,0.0,2.0,78,0.00,,,0.00,Wunderground v.1.13,2013-01-07 00:18:00,
2013-01-06 15:23:00,14.4,7.9,29.39,North,350,0.0,1.0,75,0.00,,,0.00,Wunderground v.1.13,2013-01-07 00:23:00,
2013-01-06 15:28:00,14.4,7.9,29.39,North,350,0.0,2.0,75,0.00,,,0.00,Wunderground v.1.13,2013-01-07 00:28:00,
2013-01-06 15:33:00,14.4,7.9,29.38,North,355,0.0,2.0,75,0.00,,,0.00,Wunderground v.1.13,2013-01-07 00:33:00,
2013-01-06 15:38:00,14.3,7.8,29.38,North,355,0.0,1.0,75,0.00,,,0.00,Wunderground v.1.13,2013-01-07 00:38:00,
2013-01-06 15:43:00,14.3,8.1,29.38,North,5,0.0,2.0,76,0.00,,,0.00,Wunderground v.1.13,2013-01-07 00:43:00,
2013-01-06 15:48:00,14.9,8.4,29.38,NNE,26,0.0,2.0,75,0.00,,,0.00,Wunderground v.1.13,2013-01-07 00:48:00,
2013-01-06 15:53:00,14.8,7.7,29.38,North,355,0.0,1.0,73,0.00,,,0.00,Wunderground v.1.13,2013-01-07 00:53:00,
2013-01-06 15:58:00,14.1,7.9,29.38,North,355,0.0,1.0,76,0.00,,,0.00,Wunderground v.1.13,2013-01-07 00:58:00,
2013-01-06 16:03:00,14.3,8.1,29.38,North,355,0.0,1.0,76,0.00,,,0.00,Wunderground v.1.13,2013-01-07 01:03:00,
2013-01-06 16:08:00,14.4,8.2,29.38,NNE,17,0.0,0.0,76,0.00,,,0.00,Wunderground v.1.13,2013-01-07 01:08:00,
2013-01-06 16:13:00,14.3,8.4,29.38,NNE,17,0.0,0.0,77,0.00,,,0.00,Wunderground v.1.13,2013-01-07 01:13:00,
2013-01-06 16:18:00,14.1,8.5,29.37,NNE,17,1.0,1.0,78,0.00,,,0.00,Wunderground v.1.13,2013-01-07 01:18:00,
2013-01-06 16:23:00,14.1,8.2,29.37,NNE,17,0.0,1.0,77,0.00,,,0.00,Wunderground v.1.13,2013-01-07 01:23:00,
2013-01-06 16:28:00,14.0,8.4,29.37,NNE,17,0.0,2.0,78,0.00,,,0.00,Wunderground v.1.13,2013-01-07 01:28:00,
2013-01-06 16:33:00,14.1,8.2,29.37,North,5,0.0,2.0,77,0.00,,,0.00,Wunderground v.1.13,2013-01-07 01:33:00,
2013-01-06 16:39:00,14.1,8.2,29.37,North,5,0.0,2.0,77,0.00,,,0.00,Wunderground v.1.13,2013-01-07 01:39:00,
2013-01-06 16:44:00,14.0,8.1,29.37,North,5,0.0,1.0,77,0.00,,,0.00,Wunderground v.1.13,2013-01-07 01:44:00,
2013-01-06 16:49:00,14.0,8.4,29.37,North,5,1.0,1.0,78,0.00,,,0.00,Wunderground v.1.13,2013-01-07 01:49:00,
2013-01-06 16:54:00,14.0,8.1,29.37,North,5,0.0,0.0,77,0.00,,,0.00,Wunderground v.1.13,2013-01-07 01:54:00,
2013-01-06 16:59:00,13.5,7.9,29.37,North,5,0.0,0.0,78,0.00,,,0.00,Wunderground v.1.13,2013-01-07 01:59:00,
2013-01-06 17:04:00,12.9,7.3,29.36,North,5,0.0,0.0,78,0.00,,,0.00,Wunderground v.1.13,2013-01-07 02:04:00,
2013-01-06 17:09:00,12.6,7.3,29.36,North,5,0.0,0.0,79,0.00,,,0.00,Wunderground v.1.13,2013-01-07 02:09:00,
2013-01-06 17:14:00,12.4,6.8,29.36,North,5,0.0,0.0,78,0.00,,,0.00,Wunderground v.1.13,2013-01-07 02:14:00,
2013-01-06 20:16:00,12.4,6.3,29.32,NNW,340,1.0,1.0,76,0.00,,,0.00,Wunderground v.1.13,2013-01-07 05:16:00,
2013-01-06 20:17:00,12.3,6.2,29.32,NNW,340,0.0,1.0,76,0.00,,,0.00,Wunderground v.1.13,2013-01-07 05:17:00,
2013-01-06 20:22:00,10.5,5.0,29.32,NNW,340,0.0,1.0,78,0.00,,,0.00,Wunderground v.1.13,2013-01-07 05:22:00,
2013-01-06 20:27:00,9.7,4.8,29.32,NNW,348,0.0,3.0,80,0.00,,,0.00,Wunderground v.1.13,2013-01-07 05:27:00,
2013-01-06 20:32:00,9.9,5.5,29.32,North,349,0.0,2.0,82,0.00,,,0.00,Wunderground v.1.13,2013-01-07 05:32:00,
2013-01-06 20:37:00,10.2,5.8,29.32,NNW,331,3.0,4.0,82,0.00,,,0.00,Wunderground v.1.13,2013-01-07 05:37:00,
2013-01-06 20:42:00,10.5,6.4,29.32,North,351,1.0,3.0,83,0.00,,,0.00,Wunderground v.1.13,2013-01-07 05:42:00,
2013-01-06 20:47:00,10.9,6.8,29.32,NNW,338,0.0,2.0,83,0.00,,,0.00,Wunderground v.1.13,2013-01-07 05:47:00,
2013-01-06 20:52:00,11.6,7.2,29.32,NNW,346,0.0,2.0,82,0.00,,,0.00,Wunderground v.1.13,2013-01-07 05:52:00,
2013-01-06 20:57:00,11.7,7.3,29.32,NNW,346,0.0,1.0,82,0.00,,,0.00,Wunderground v.1.13,2013-01-07 05:57:00,
2013-01-06 21:02:00,11.7,7.3,29.32,North,351,0.0,2.0,82,0.00,,,0.00,Wunderground v.1.13,2013-01-07 06:02:00,
2013-01-06 21:07:00,11.7,7.3,29.32,North,351,0.0,0.0,82,0.00,,,0.00,Wunderground v.1.13,2013-01-07 06:07:00,
2013-01-06 21:12:00,12.3,8.4,29.32,North,351,0.0,0.0,84,0.00,,,0.00,Wunderground v.1.13,2013-01-07 06:12:00,
2013-01-06 21:17:00,13.6,9.7,29.32,East,90,0.0,0.0,84,0.00,,,0.00,Wunderground v.1.13,2013-01-07 06:17:00,
2013-01-06 21:22:00,13.8,9.0,29.31,East,90,0.0,0.0,81,0.00,,,0.00,Wunderground v.1.13,2013-01-07 06:22:00,
2013-01-06 21:27:00,12.9,7.9,29.31,East,90,0.0,0.0,80,0.00,,,0.00,Wunderground v.1.13,2013-01-07 06:27:00,
2013-01-06 21:32:00,12.3,7.9,29.31,East,90,0.0,0.0,82,0.00,,,0.00,Wunderground v.1.13,2013-01-07 06:32:00,
2013-01-06 21:38:00,11.9,7.5,29.31,East,90,0.0,0.0,82,0.00,,,0.00,Wunderground v.1.13,2013-01-07 06:38:00,
2013-01-06 21:43:00,11.9,7.7,29.31,East,90,1.0,1.0,83,0.00,,,0.00,Wunderground v.1.13,2013-01-07 06:43:00,
2013-01-06 21:48:00,12.1,7.9,29.31,East,90,0.0,1.0,83,0.00,,,0.00,Wunderground v.1.13,2013-01-07 06:48:00,
2013-01-06 21:53:00,12.1,7.9,29.31,East,90,0.0,0.0,83,0.00,,,0.00,Wunderground v.1.13,2013-01-07 06:53:00,
2013-01-06 21:58:00,11.7,7.3,29.31,East,90,0.0,0.0,82,0.00,,,0.00,Wunderground v.1.13,2013-01-07 06:58:00,
2013-01-06 22:03:00,11.4,7.0,29.30,East,90,0.0,1.0,82,0.00,,,0.00,Wunderground v.1.13,2013-01-07 07:03:00,
2013-01-06 22:08:00,11.4,7.2,29.30,NE,40,0.0,0.0,83,0.00,,,0.00,Wunderground v.1.13,2013-01-07 07:08:00,
2013-01-06 22:13:00,11.6,7.4,29.30,NE,40,0.0,0.0,83,0.00,,,0.00,Wunderground v.1.13,2013-01-07 07:13:00,